Regional Weather Roundup
Issued by NWS

Home | Current Version | Previous Version | Text Only | Print | Product List | Glossary On
Versions: 1 2 3 4 5 6 7 8 9 10 11 12 13 14 15 16 17 18 19 20 21 22 23 24 25 26 27 28 29 30 31 32 33 34 35 36 37 38 39 40 41 42 43 44 45 46 47 48 49 50
000
ASUS43 KDTX 021101
RWRMI
MICHIGAN HOURLY REGIONAL WEATHER ROUNDUP
NATIONAL WEATHER SERVICE DETROIT/PONTIAC MI
700 AM EDT SUN AUG 02 2015

NOTE: "FAIR" INDICATES FEW OR NO CLOUDS BELOW 12,000 FEET WITH NO
SIGNIFICANT WEATHER AND/OR OBSTRUCTION TO VISIBILITY.

MIZ047>049-052>055-059>063-066>070-074>076-081>083-021200-
SOUTHEAST LOWER MICHIGAN

CITY           SKY/WX    TMP DP  RH WIND       PRES   REMARKS
ADRIAN         CLEAR     62  59  90 W3        29.90F
ALMA           MOCLDY    60  58  91 S6        29.85F
ANN ARBOR      CLEAR     56  55  97 MISG      29.88F
BAD AXE        CLEAR     57  52  81 SW5       29.85S
CARO           CLEAR     55  52  92 CALM      29.85S
DETROIT CITY   CLEAR     64  56  75 SW3       29.88S
DETROIT        PTCLDY    63  57  81 S5        29.89S
FLINT          CLEAR     65  56  72 S6        29.87S
GROSSE ILE     CLEAR     66  59  77 SW6       29.87S
HILLSDALE      CLEAR     67  65  94 W5        29.91R
HOWELL         CLEAR     63  58  84 SW5       29.88S

CITY           SKY/WX    TMP DP  RH WIND       PRES   REMARKS
JACKSON        CLEAR     63  60  90 SW7       29.90R
LAMBERTVILLE   CLEAR     65  60  85 S3        29.90S
LANSING        PTCLDY    65  60  84 SW8       29.88R
LAPEER         FAIR      52  52 100 CALM      29.87S
MASON          PTCLDY    61  58  90 CALM      29.89R
MONROE         CLEAR     62  59  90 W3        29.88S
PONTIAC        PTCLDY    61  56  83 CALM      29.87F
PORT HOPE        N/A     62  54  74 SW7       29.81S
PORT HURON     CLEAR     52  52 100 CALM      29.87S
TRI CITIES     CLEAR     62  55  77 S7        29.85S
MIDLAND        FAIR      55  54  95 CALM      29.83S
TROY           CLEAR     63  55  76 SW3       29.89S
SAGINAW HB     CLEAR     61  55  82 S6        29.84S
$$
MIZ043>046-050>051-056>058-064>065-071>073-077>080-021200-
SOUTHWEST LOWER MICHIGAN

CITY           SKY/WX    TMP DP  RH WIND       PRES   REMARKS
BATTLE CREEK   PTCLDY    66  62  87 S5        29.90R
BENTON HARBOR  CLEAR     72  66  81 SW8       29.87S
BIG RAPIDS     CLOUDY    59  57  94 CALM      29.82S
COLDWATER      CLEAR     64  62  91 SW5       29.91R
FREMONT        FAIR      62  60  94 CALM      29.82F
HOLLAND        MOCLDY    72  67  84 SW7       29.85F
GRAND RAPIDS   CLOUDY    67  63  87 S5        29.86S
IONIA          FAIR      65  61  87 SW5       29.85S
KALAMAZOO      PTCLDY    66  62  87 S7        29.89S
LUDINGTON      CLOUDY    71  65  81 S5        29.78F
MARSHALL       PTCLDY    65  62  88 SW5       29.89R
MOUNT PLEASANT MOCLDY    65  56  72 SW5       29.82F
MUSKEGON       CLOUDY    71  67  87 SW7       29.83S
SOUTH HAVEN    PTCLDY    73  67  82 SW6       29.86S
$$
MIZ016>042-021200-
NORTHERN LOWER MICHIGAN

CITY           SKY/WX    TMP DP  RH WIND       PRES   REMARKS
ALPENA         CLEAR     61  52  72 S6        29.77S
BEAVER ISLAND  PTCLDY    68  62  80 SW10G17   29.69F HAZE
BELLAIRE       CLOUDY    65  57  77 SW3       29.74F
CADILLAC       CLOUDY    62  58  87 S8        29.79F
CHARLEVOIX     CLEAR     67  59  75 S10       29.73F
FRANKFORT      MOCLDY    70  63  79 S7        29.72F
GAYLORD        CLEAR     64  57  78 SW8       29.77F
GRAYLING       MOCLDY    64  56  77 SW5       29.79F
HARBOR SPRINGS CLEAR     64  56  77 NW5       29.71F
HOUGHTON LAKE  PTCLDY    64  56  75 S8        29.81F
MANISTEE       CLOUDY    63  57  82 CALM      29.77F
OSCODA         CLEAR     62  54  76 SW10      29.79S
PELLSTON       PTCLDY    67  55  65 S5        29.71F
ROGERS CITY    CLEAR     63  53  70 SW9       29.74F
TRAVERSE CITY  MOCLDY    68  58  70 VRB7      29.71F
$$
MIZ007>008-015-021200-
EASTERN UPPER MICHIGAN

CITY           SKY/WX    TMP DP  RH WIND       PRES   REMARKS
KINROSS        PTCLDY    63  63 100 SW6       29.68F
MACKINAC ISLAN   N/A     67  57  69 SW13G18   29.69F
NEWBERRY       MOCLDY    61  58  90 S9        29.67S
S. S. MARIE    PTCLDY    64  61  90 SW6       29.66F
MUNISING         N/A     65  55  70 SW12      29.63F
$$
MIZ004>006-011>014-085-021200-
CENTRAL UPPER MICHIGAN

CITY           SKY/WX    TMP DP  RH WIND       PRES   REMARKS
MANISTIQUE     MOCLDY    61  59  94 SW3       29.68S
ESCANABA       MOCLDY    59  54  82 CALM      29.65F
MENOMINEE      MOCLDY    63  55  77 SW5       29.68S
SAWYER-GWINN   PTCLDY    61  54  77 CALM      29.66F
$$
MIZ001>003-009>011-084-021200-
WESTERN UPPER MICHIGAN

CITY           SKY/WX    TMP DP  RH WIND       PRES   REMARKS
IRON MOUNTAIN  MOCLDY    58  55  90 CALM      29.65F
HOUGHTON       LGT RAIN  62  56  80 NW16      29.67R
COPPER HARBOR    N/A     62  57  83 NW10      29.67R
IRONWOOD       MOCLDY    66  61  82 N7G20     29.67R
$$

ABBREVIATIONS USED IN REMARKS
   TC - TEMPERATURE IN CELSIUS
  WCI - WIND CHILL INDEX
   HX - HEAT INDEX
  VSB - VISIBILITY



USA.gov is the U.S. government's official web portal to all federal, state and local government web resources and services.